{"data":{"norad_id":60267,"epoch":"2026-05-25T04:35:59.280576Z","epoch_age_seconds":69160,"freshness":"FRESH","line1":"1 60267U 24131N   26145.19165834  .00001153  00000+0  51045-4 0  9995","line2":"2 60267  53.1605  56.9243 0001106  97.9207 262.1919 15.30192171103334","mean_motion":15.30192171,"eccentricity":0.0001106,"inclination_deg":53.1605,"raan_deg":56.9243,"arg_perigee_deg":97.9207,"mean_anomaly_deg":262.1919,"bstar":5.1045e-5,"rev_number":10333,"period_min":94.105827182408,"perigee_km":474.48046217753,"apogee_km":475.99642882608,"semimajor_km":6853.3754455018,"source":"CELESTRAK","updated_at":"2026-05-25T13:38:19.200815Z"}}